Location: Charlottesville
(38.0290°N, 78.4770°W)
Time: 09:39:51
(UTC-04:00)

Envisat - Pass Details

Date: 07 October 2017
Orbit: 764 x 766 km, 98.2° (Epoch: 23 October)

Event Time Altitude Azimuth Distance (km) Brightness Sun altitude
Exits shadow 21:18:23 55° 319° (NW) 914 3.5 -30.3°
Drops below altitude 10° 21:22:28 10° 343° (NNW) 2,309 5.8 -31.0°
Sets 21:24:48 0° 345° (NNW) 3,239 6.7 -31.5°
